STARLINK-11630, 63111

Orbit data source: Space-Track

STARLINK-11630, 63111 is a payload satellite owned by SpaceX/Seattle (US) in LEO that was launched on Thu, 27 Feb 2025 UTC via an FALCON 9 launch vehicle from the Air Force Eastern Test Range (AFETR). Payload-class satellites include a variety of spacecraft equipped with specific instruments for various scientific and technological missions. These include communications satellites like Starlink; space stations such as the ISS; scientific satellites like the Hubble; Earth observation satellites from companies like Planet Labs, Umbra, and HawkEye 360; GPS; miniature CubeSats for education and research; and military/defense satellites.

Loading next visibility...
Identifier
63111, 2025-039H
Orbit
LEO
Last TLE update
14 hours ago
Origin
Manufacturer
SpaceX/Seattle
Mission
Operational Commercial Communications
Bus & Motor
STARLINK V2M, Unknown motor
Mass
730 kg wet, ~700 kg dry
Launch date (UTC)
2025-02-27 (4 months ago)
Launch vehicle
FALCON 9
Launch site
Air Force Eastern Test Range (AFETR)
Object type
Payload
Rocket body
Debris
Shape & HBR
Box + 2 Pan, 29 m
Radar Cross Section
36.964 m², Large (>1 m²)

Expand to show TLE details & history

TLE from 14 hours ago
0 STARLINK-11630
1 63111U 25039H   25181.84581435  .00197855  00000-0  15080-2 0  9997
2 63111  42.9999 315.1733 0001192 294.9579  65.1165 15.70855879 20716
Epoch: 2025-06-30T20:17Z
TLE epoch observation values (Epoch: 2025-06-30T20:17:58.359Z)
Latitude
-0.00002°
Longitude
91.53035°
Altitude
355.883 km
Speed
7.698 km/s
True Right ascension
21h 00m 41s
True Declination
0° 00' 00"
Sunlit
Object was in full shadow at epoch
Visualization orbit readout
Latitude
21.98289°
Longitude
113.54064°
Altitude
355.386 km
Speed
7.7 km/s
Apparent Right ascension
00h 32m 12s
Apparent Declination
-43° 21' 54"
Sunlit
Object is in partial shadow
Visualization observer readout
Local Sidereal Time
21:48:45
Azimuth
151.594° SSE
Elevation
-1.083°
Doppler factor
1
Orbital elements
Apogee altitude
359.234 km
Perigee altitude
357.628 km
Semi-major axis
6,736.568 km
Eccentricity
0.00012
Inclination
42.9999°
RAAN
315.1733°
Arg. of periapsis
294.9579°
True anomaly
Unknown
Mean anomaly
65.1165°
Eccentric anomaly
Unknown
Mean motion
3.92541 °/min
Orbital period
91.71 mins
BSTAR
0.001508
Loading maneuver chart data...
Loading SW <> Apogee altitude chart data...
Loading historical data...
Loading historical data...
Loading historical data...
Loading historical data...
Loading historical data...
Loading historical data...
Loading historical data...

STARLINK-11630 Visibility forecast

Observer location: undefined°, undefined°

Span
Click to sort rows by Start time (UTC) header in descending order
Start Az.
Max El. time (UTC)
Max El. Az.
Max El.
End time (UTC)
End Az.
4 mins2025-07-01 13:21:20.981Z254.176° W2025-07-01 13:23:20.981Z61.14° ENE42.479°2025-07-01 13:25:20.981Z70.889° E
4 mins2025-07-01 16:34:20.981Z294.513° NW2025-07-01 16:35:20.981Z328.674° NNW43.678°2025-07-01 16:38:20.981Z103.809° ESE
|